This demonstration page uses our WeatherBlox Daily Observations layout. Learn more.

Left ArrowRight Arrow

44.8408, -93.29828

Hourly Observations for September 1, 2016

Temp ( °F °C ) Dew Point ( °F °C ) Humidity (%) Winds ( mph kmh ) Pressure ( in mb ) Visibility ( mi km ) Precip ( " mm )
12:53 am 00:53 Clear 64 17.8 55 12.8 73 73 Calm 30.20 1023 10 16 0.00 0.00
1:53 am 01:53 Clear 64 17.8 55 12.8 73 73 Calm 30.21 1023 10 16 0.00 0.00
2:53 am 02:53 Clear 61 16.1 54 12.2 78 78 ENE 5 7 30.22 1023 10 16 0.00 0.00
3:53 am 03:53 Clear 62 16.7 54 12.2 75 75 Calm 30.22 1024 10 16 0.00 0.00
4:53 am 04:53 Mostly Clear 62 16.7 53 11.7 73 73 E 3 6 30.23 1024 10 16 0.00 0.00
5:53 am 05:53 Mostly Clear 61 16.1 53 11.7 75 75 VRB 3 6 30.25 1024 10 16 0.00 0.00
6:53 am 06:53 Mostly Sunny 60 15.6 53 11.7 78 78 E 7 11 30.27 1025 10 16 0.00 0.00
7:53 am 07:53 Mostly Sunny 63 17.2 54 12.2 73 73 Calm 30.28 1025 10 16 0.00 0.00
8:53 am 08:53 Mostly Sunny 64 17.8 54 12.2 70 70 SE 6 9 30.29 1026 10 16 0.00 0.00
9:53 am 09:53 Mostly Sunny 68 20 55 12.8 63 63 E 8 13 30.30 1026 10 16 0.00 0.00
10:53 am 10:53 Mostly Sunny 69 20.6 52 11.1 55 55 SE 7 11 30.30 1026 10 16 0.00 0.00
11:53 am 11:53 Mostly Sunny 71 21.7 51 10.6 49 49 SE 8 13 30.29 1026 10 16 0.00 0.00
12:53 pm 12:53 Mostly Sunny 72 22.2 52 11.1 50 50 VRB 6 9 30.28 1025 10 16 0.00 0.00
1:53 pm 13:53 Partly Cloudy 75 23.9 52 11.1 45 45 E 9 15 30.28 1025 10 16 0.00 0.00
2:53 pm 14:53 Partly Cloudy 74 23.3 52 11.1 46 46 ENE 10 17 30.26 1025 10 16 0.00 0.00
3:53 pm 15:53 Partly Cloudy 75 23.9 52 11.1 45 45 ESE 7 11 30.25 1024 10 16 0.00 0.00
4:53 pm 16:53 Partly Cloudy 75 23.9 53 11.7 46 46 ESE 8 13 30.24 1024 10 16 0.00 0.00
5:53 pm 17:53 Partly Cloudy 74 23.3 53 11.7 48 48 E 10 17 30.24 1024 10 16 0.00 0.00
6:53 pm 18:53 Partly Cloudy 75 24 46 8 36 36 NNE 8 13 30.12 1020 10 16 0.00 0.00
7:53 pm 19:53 Mostly Cloudy 70 21.1 54 12.2 57 57 ESE 12 19 30.24 1024 10 16 0.00 0.00
8:53 pm 20:53 Mostly Cloudy 67 19.4 54 12.2 63 63 E 9 15 30.25 1025 10 16 0.00 0.00
9:53 pm 21:53 Mostly Clear 66 18.9 54 12.2 65 65 ESE 10 17 30.25 1025 10 16 0.00 0.00
10:53 pm 22:53 Mostly Clear 64 17.8 54 12.2 70 70 ESE 8 13 30.25 1025 10 16 0.00 0.00
11:53 pm 23:53 Clear 63 17.2 54 12.2 73 73 ESE 7 11 30.26 1025 10 16 0.00 0.00

Powered by AerisWeather